Regional Weather Roundup
Issued by NWS Pendleton, OR

Home | Current Version | Previous Version | Text Only | Print | Product List | Glossary On
Versions: 1 2 3 4 5 6 7 8 9 10 11 12 13 14 15 16 17 18 19 20 21 22 23 24 25 26 27 28 29 30 31 32 33 34 35 36 37 38 39 40 41 42 43 44 45 46 47 48 49 50
000
ASUS46 KPDT 240325
RWRPDT
PENDLETON REGIONAL WEATHER ROUNDUP
NATIONAL WEATHER SERVICE PENDLETON OREGON
800 PM PDT MON APR 23 2018

NOTE: FAIR INDICATES FEW OR NO CLOUDS BELOW 12,000 FEET WITH NO
SIGNIFICANT WEATHER AND/OR OBSTRUCTIONS TO VISIBILITY.

# INDICATES UNOFFICIAL STATION AND DATA

WAZ520-240410-
EAST SLOPES OF WASHINGTON CASCADES

CITY            SKY/WX      TMP DP  RH  WIND    PRES   REMARKS
#BULLFROG       N/A         58  25  28  CALM    N/A
#CLE ELUM HS    N/A         57  24  28  CALM    30.24S
#EASTON DOT     N/A         54  28  36  N3      N/A
#ELK HTS DOT    N/A         55  55  100 E2      N/A
#GLENWOOD       N/A         55  26  32  NE1     30.32R
#NELSON 3SW     N/A         50  30  46  CALM    30.53R
#NILE           N/A         54  27  35  CALM    29.64R
#TEANAWAY 4NE   N/A         53  30  41  E1      N/A
#TROUT LAKE 1NE N/A         57  26  30  E2      30.29S
#TROUT LAKE 1E  N/A         56  29  35  CALM    30.30R
$$

WAZ521-240410-
SIMCOE HIGHLANDS

CITY            SKY/WX      TMP DP  RH  WIND    PRES   REMARKS
#BICKLETON HS   N/A         45  27  49  N8      29.96R
#SATUS PASS DOT N/A         49  13  23  E7      N/A
#CENTERVILLE 1SWN/A         52  31  44  E3      30.28R
#GOLDENDALE 1NE N/A         63   8  11  NE5     N/A
#GOLDENDALE 4W  N/A         54  10  17  NE7     30.32R
#GOODNOE HILLS  N/A         56  25  30  NE3     30.21R
#LYLE 6NE       N/A         57  32  38  NE7     30.29S
#PITT 4SE       N/A         52  29  41  NE5     30.32S
$$

WAZ026-240410-
KITTITAS VALLEY

CITY            SKY/WX      TMP DP  RH  WIND    PRES   REMARKS
ELLENSBURG AP   CLEAR       56  29  35  E8      30.32R
#ELLENSBURG CWU N/A         59  28  30  E5      30.26R
#ELLENSBURG 3NE N/A         55  31  40  CALM    28.38R
#ELLENSBURG 1E  N/A         57  30  35  CALM    30.37S
#KITTITAS 3S    N/A         52  34  50  E1      30.32S
#MANASTASH RDG  N/A         54  53  96  CALM    N/A
#ROCKY CYN DOT  N/A         58  26  29  SE7     N/A
#RYEGRASS DOT   N/A         53  24  32  CALM    N/A
$$

WAZ027-240410-
YAKIMA VALLEY

CITY            SKY/WX      TMP DP  RH  WIND    PRES   REMARKS
SUNNYSIDE AP    CLEAR       54  34  47  N5      30.31R
YAKIMA AIRPORT  CLEAR       64  25  23  E3      30.31S
YAKIMA-VAGABOND CLEAR       56  24  29  E6      30.30R
#DONALD 2NE     N/A         60   4  10  N3      29.15S
#GRANDVIEW      N/A         58  26  29  CALM    30.32R
#MABTON         N/A         59  34  39  E1      30.29S
#MOXEE 2E       N/A         37  N/A N/A SW12    29.79S WCI 29
#NACHES 2SW     N/A         59  28  30  CALM    30.33S
#OUTLOOK DOT    N/A         61  26  26  CALM    30.27S
#PARKER DOT     N/A         60  27  28  SW6     30.30S
#TERRACE HTS    N/A         59  28  30  CALM    30.28S
#TOPPENISH      N/A         63  30  29  CALM    30.22S
#I82 S UMTANUM RN/A         54  21  27  N5      N/A
#UNION GAP DOT  N/A         63  24  22  CALM    30.34S
#W YAKIMA       N/A         59  28  30  NE3     30.32S
#WHITE SWAN 5E  N/A         60  30  32  CALM    30.32S
#WILEY CITY 3W  N/A         55  23  29  CALM    30.29R
#ZILLAH DOT     N/A         63  26  24  N2      N/A
$$

WAZ028-240410-
LOWER COLUMBIA BASIN...WASHINGTON

CITY            SKY/WX      TMP DP  RH  WIND    PRES   REMARKS
PASCO           CLEAR       59  37  44  N5      30.29S
PROSSER AWOS    N/A         54  32  43  CALM    30.33S
RICHLAND AWOS   CLEAR       60  30  32  CALM    30.29S
#BASIN CITY 5SW N/A         60  37  42  CALM    30.28R
#BENTON CITY    N/A         60  27  28  CALM    30.20S
#CONNELL 5N     N/A         57  35  43  NW1     30.30S
#CONNELL 5NW    N/A         55  36  49  E1      30.24S
#ELTOPIA 6NW    N/A         61  34  36  CALM    29.26S
#KAHLOTUS       N/A         61  33  35  CALM    30.29S
#KENNEWICK 3S   N/A         62  27  26  CALM    30.29S
#PROSSER DOT    N/A         60  28  29  CALM    30.31S
#SAGEMOOR 2W    N/A         60  35  39  CALM    30.14S
#TOUCHET 2S     N/A         55  40  57  CALM    30.26S
#WEST PASCO     N/A         65  34  31  CALM    30.29F
$$

WAZ029-240410-
FOOTHILLS OF THE BLUES...WASHINGTON

CITY            SKY/WX      TMP DP  RH  WIND    PRES   REMARKS
WALLA WALLA AP  CLEAR       59  35  40  N10     30.27S
#CLYDE 6NW      N/A         56  34  43  NE2     30.28S
#DELANEY DOT    N/A         58  34  40  CALM    30.31R
#LOWDEN 2SE     N/A         57  38  49  NW1     30.24S
#PLEASANT VIEW 1N/A         56  33  42  CALM    30.33R
#PRESCOTT       N/A         57  37  47  CALM    30.26S
#WHITMAN COLLEGEN/A         60  38  44  CALM    30.33R
#WAITSBURG 5S   N/A         54  36  50  CALM    30.37S
#WAITSBURG 6SSE N/A         54  35  48  NE3     30.12R
#WAITSBURG 8N   N/A         56  N/A N/A N6      30.06S
#WALLA WALLA 5E N/A         54  38  55  E5      N/A
#WHITMAN MISSIONN/A         59  38  45  CALM    30.29S
$$

WAZ030-240410-
BLUE MOUNTAINS...WASHINGTON

CITY            SKY/WX      TMP DP  RH  WIND    PRES   REMARKS
$$

ORZ009-041-WAZ024-240410-
COLUMBIA RIVER GORGE

CITY            SKY/WX      TMP DP  RH  WIND    PRES   REMARKS
HOOD RIVER AP   CLEAR       61  28  28  SE6     30.27S
THE DALLES AP   CLEAR       61  31  32  E8      30.27S
#ARLINGTON AIRPON/A         56  24  29  E7      30.31R
#CELILO DOT     N/A         62  29  28  CALM    N/A
#LYLE           N/A         65  31  28  E7      30.27R
#MARYHILL       N/A         59  24  26  N6      N/A
#MURDOCK        N/A         63  30  29  NE5     30.23R
#RUFUS DOT      N/A         65  N/A N/A SE12    N/A

$$

ORZ510-240410-
NORTH CENTRAL OREGON

CITY            SKY/WX      TMP DP  RH  WIND    PRES   REMARKS
#ANTELOPE       N/A         51  27  39  NE8     30.17S
#CHENOWITH 1W   N/A         55  30  38  E15     N/A
#COW CYN RST AREN/A         52  N/A N/A N10     N/A
#DUFUR          N/A         53  32  45  CALM    30.27R
#DUFUR 9E       N/A         53  27  36  E14     30.34S
#GRASS VALLEY 1SN/A         47  29  49  E8      30.29S
#KENT DOT       N/A         51  17  26  NE6     N/A
#MAUPIN SCHOOL  N/A         60  28  29  NE2     30.32S
#SHANIKO 5WSW   N/A         49  24  37  NE18    N/A    WCI 43
#SHANIKO 4NW    N/A         47  23  38  NE18    30.28S WCI 40
#TYGH VALLEY 2NEN/A         58  28  32  N7      30.27S
#WAPANITIA AIRPON/A         53  27  36  E5      30.30F
#WASCO 5NE      N/A         52  31  44  CALM    30.30S
$$

ORZ511-240410-
CENTRAL OREGON

CITY            SKY/WX      TMP DP  RH  WIND    PRES   REMARKS
BEND AIRPORT    CLEAR       54  25  32  NW10    30.24R
MADRAS AIRPORT  CLEAR       50  27  41  N10     30.27S
PRINEVILLE AP   CLEAR       54  27  35  N13     30.23R
REDMOND AIRPORT CLEAR       56  27  33  N7      30.22R
#ASHWOOD SCHOOL N/A         54  26  34  NE3     30.20R
#BEND 1SW       N/A         50  28  42  NE3     N/A
#BEND-AWBREY    N/A         53  28  38  N2      30.24R
#BEND-KIM LN    N/A         53  27  36  N3      30.20R
#CULVER         N/A         52  27  38  N5      30.08R
#CULVER 8W      N/A         54  18  24  NW2     30.23S
#LAKE BILLY CHINN/A         55  N/A N/A N17     30.30R
#POWELL BUTTE   N/A         54  27  35  S1      30.17R
#PRINEVILLE     N/A         54  32  43  CALM    30.31R
#PRINEVILLE 3N  N/A         53  29  39  NW6     30.22R
#WARM SPRINGS   N/A         59  28  30  CALM    30.11R

$$


ORZ509-240410-
EAST SLOPES OF OREGON CASCADES

CITY            SKY/WX      TMP DP  RH  WIND    PRES   REMARKS
SISTERS AWOS    N/A         55  25  31  N8      30.21R
#BLUE BOX PASS  N/A         43  N/A N/A CALM    N/A
#CAMP SHERMAN   N/A         53  21  28  CALM    30.36R
#LA PINE 4NW    N/A         52  27  38  N1      30.24R
#LAVA BUTTE DOT N/A         50  20  30  NW1     N/A
#SISTERS ODOT   N/A         54  23  30  S2      N/A
#SISTERS 3N     N/A         49  19  30  CALM    30.23S
#SUNRIVER       N/A         51  26  37  N1      30.25R
#TUMALO 3W      N/A         52  26  36  N7      30.11R
#WANOGA BUTTE D N/A         41  N/A N/A NE8     N/A

$$

ORZ044-240410-
LOWER COLUMBIA BASIN...OREGON

CITY            SKY/WX      TMP DP  RH  WIND    PRES   REMARKS
HERMISTON       CLEAR       57  27  31  CALM    30.28S
#BOARDMAN SCHOOLN/A         64  29  27  CALM    30.27S
#BOARDMAN 8SW   N/A         60  30  32  N3      30.29S
#ECHO 8SW       N/A         53  36  52  CALM    30.29S
#I-84 EX 198 DOTN/A         59  30  33  E6      N/A
#IONE SCHOOL    N/A         57  29  34  CALM    30.31R
#UMATILLA       N/A         65  29  26  CALM    30.21F
$$

ORZ507-240410-
NORTHERN FOOTHILLS OF THE BLUES

CITY            SKY/WX      TMP DP  RH  WIND    PRES   REMARKS
PENDLETON AIRPT CLEAR       53  33  46  N6      30.28S
#ADAMS 3WNW     N/A         47  37  68  NE1     30.30S
#ATHENA         N/A         51  34  52  CALM    30.33F
#CAYUSE         N/A         55  37  51  NE1     30.28S
#HELIX SCHOOL   N/A         49  34  56  CALM    30.30F
#HELIX 3N       N/A         50  34  54  NE1     30.28F
#HOLDMAN 5SE    N/A         51  37  59  CALM    30.27S
#HOLDMAN 6E     N/A         53  33  46  N5      30.10S
#M-F GROVE ELEM N/A         56  31  38  CALM    30.24S
#M-FREEWATER 5SEN/A         57  36  45  CALM    30.27S
#PENDLETON DNTN N/A         58  28  32  CALM    N/A
#PDT AQUATIC CTRN/A         55  29  37  N2      30.25S
#PDT SUNRIDGE   N/A         58  33  39  CALM    30.29S
#PENDLETON 6SE  N/A         55  36  49  NE2     30.26S
#PENDLETON 7NW  N/A         54  40  59  CALM    N/A
#PILOT ROCK 1S  N/A         52  31  44  N1      30.29S
#PILOT ROCK     N/A         52  31  44  CALM    30.29S
#TUTUILLA       N/A         54  36  50  CALM    30.33S
#UMAPINE 2E     N/A         57  40  53  CALM    30.25R

$$

ORZ508-240410-
SOUTHERN FOOTHILLS OF THE BLUES

CITY            SKY/WX      TMP DP  RH  WIND    PRES   REMARKS
#AJAX           N/A         52  17  25  CALM    30.42R
#CONDON 5W      N/A         46  20  35  N8      30.26S
#FOSSIL SCHOOL  N/A         53  25  33  NE10    30.20R
#HEPPNER EOC    N/A         53  29  39  CALM    30.25R
#HEPPNER 4NE    N/A         48  27  44  CALM    30.32S
#LEXINGTON 2SE  N/A         57  27  31  CALM    30.27R
#MIKKALO        N/A         51  21  30  E1      30.38S
#OLEX 4N        N/A         58  25  28  CALM    30.27S
#RUGGS 5NE      N/A         49  23  36  N8      30.46S
#RUGGS 2SW      N/A         47  26  44  CALM    30.33S

$$

ORZ502-503-240410-
BLUE MOUNTAINS

CITY            SKY/WX      TMP DP  RH  WIND    PRES   REMARKS
MEACHAM         CLEAR       45  28  51  CALM    30.30S
#BATTLE MTN DOT N/A         44  24  45  N3      N/A
#GRANITE        N/A         42  12  29  E2      29.88F
#HARDMAN 10S    N/A         42  25  51  CALM    30.43S
#HEPPNER 15SE   N/A         41  29  62  CALM    25.79S
#LADD CYN SMT   N/A         49  23  36  NW3     N/A
#LADD CREEK ODOTN/A         49  28  44  SW1     N/A
#N POWDER DOT   N/A         53  25  33  N12     N/A
#PIKES PEAK     N/A         50  28  42  CALM    27.99S
#SUMMERVILLE 5NWN/A         46  33  60  CALM    26.91R
#TOLLGATE       N/A         39  27  62  CALM    30.30S
#TROY SCHOOL    N/A         56  38  51  CALM    30.14R
#UKIAH          N/A         45  30  55  N1      30.26R
#WESTON 4E      N/A         48  28  46  CALM    30.28S
$$

ORZ505-240410-
JOHN DAY BASIN

CITY            SKY/WX      TMP DP  RH  WIND    PRES   REMARKS
JOHN DAY        CLEAR       53  26  35  CALM    30.25R
#ANTELOPE 9ESE  N/A         59  25  27  VRB7    N/A
#DAYVILLE SCHOOLN/A         59  17  19  N5      30.18R
#MITCHELL 8NW   N/A         52  27  38  CALM    30.29R
#MONUMENT HS    N/A         58  23  26  NW2     30.20R
#MT. VERNON 5SE N/A         51  28  41  CALM    30.19S
#SPRAY SCHOOL   N/A         57  N/A N/A W1      N/A
$$

ORZ506-240410-
OCHOCO AND JOHN DAY HIGHLANDS

CITY            SKY/WX      TMP DP  RH  WIND    PRES   REMARKS
#HORSE RIDGE DO N/A         53  23  31  NE3     N/A
#IZEE 6NW       N/A         48  26  42  CALM    N/A
#KEYES SMT DOT  N/A         49  24  37  N5      N/A
#PAULINA ODOT   N/A         54  22  28  N6      N/A
#PINE MTN OBS   N/A         42  24  48  NW3     N/A
#PRAIRIE CITY   N/A         54  26  34  CALM    30.37S
#SENECA         N/A         49  N/A N/A CALM    N/A
#SENECA 9NW     N/A         47  25  42  CALM    30.24S
$$

ORZ049-240410-
GRANDE RONDE VALLEY

CITY            SKY/WX      TMP DP  RH  WIND    PRES   REMARKS
LA GRANDE       CLEAR       52  31  44  NW10    30.27R
#COVE SCHOOL    N/A         57  26  30  CALM    30.25R
#COVE 6NW       N/A         50  31  48  NW2     30.28R
#ELGIN 3N       N/A         54  25  32  N1      30.24R
#ELGIN 1E       N/A         54  30  40  CALM    N/A
#IMBLER SCHOOL  N/A         50  32  50  CALM    30.22R
#ISLAND CITY 4N N/A         66  33  29  S3      30.15S
#LADD CYN DOT   N/A         52  29  41  NW1     N/A
#UNION 1S       N/A         51  31  46  CALM    30.27R
$$

ORZ050-240410-
WALLOWA COUNTY

CITY            SKY/WX      TMP DP  RH  WIND    PRES   REMARKS
#ENTERPRISE HS  N/A         49  32  52  NE1     30.19R
#IMNAHA SCHOOL  N/A         58  33  39  CALM    30.26R
#IMNAHA 10S     N/A         53  32  45  N1      30.24R
#JOSEPH         N/A         46  28  49  CALM    30.47R
#JOSEPH 3N      N/A         46  25  43  CALM    30.31R
#JOSEPH 3W      N/A         40  32  73  SW6     30.13R
#LOSTINE        N/A         47  31  53  CALM    30.12R
#LOSTINE 3SE    N/A         47  29  49  CALM    30.37R
#MT HOWARD 8000 N/A         31  23  72  N3      30.32S
#PROMISE 1S     N/A         50  31  48  N2      30.37F
#WALLOWA LAKE   N/A         43  32  65  CALM    30.34R
#WALLOWA SCHOOL N/A         55  29  37  CALM    30.23R



$$



USA.gov is the U.S. government's official web portal to all federal, state and local government web resources and services.